This demonstration page uses our WeatherBlox Daily Observations layout. Learn more.

Left ArrowRight Arrow

Hourly Observations for December 31, 2020

Temp ( °F °C ) Dew Point ( °F °C ) Humidity (%) Winds ( mph kmh ) Pressure ( in mb ) Visibility ( mi km ) Precip ( " mm )
12:52 am 00:52 Mostly Cloudy 10 -12.2 7 -13.9 87 87 SE 7 11 30.24 1024 10 16 0.00 0.00
1:52 am 01:52 Mostly Clear 9 -12.8 7 -13.9 92 92 SSE 8 13 30.23 1024 10 16 0.00 0.00
2:52 am 02:52 Clear 10 -12.2 6 -14.4 84 84 S 6 9 30.22 1024 10 16 0.00 0.00
3:52 am 03:52 Mostly Clear with Mist and Fog 7 -13.9 5 -15 91 91 SSE 8 13 30.23 1024 2 3 0.00 0.00
4:26 am 04:26 Mostly Cloudy with Mist and Fog 6 -14.4 4 -15.6 91 91 SE 7 11 30.31 1026 2 2 0.00 0.00
4:29 am 04:29 Mostly Cloudy with Mist and Fog 6 -14.4 4 -15.6 91 91 SE 7 11 30.31 1026 1 1 0.00 0.00
4:52 am 04:52 Partly Cloudy with Mist and Fog 8 -13.3 6 -14.4 92 92 SE 6 9 30.23 1024 3 5 0.00 0.00
5:52 am 05:52 Clear with Patchy Fog 9 -12.8 6 -14.4 88 88 S 7 11 30.22 1024 7 11 0.00 0.00
6:52 am 06:52 Clear with Patchy Fog 8 -13.3 5 -15 87 87 S 5 7 30.22 1023 7 11 0.00 0.00
7:52 am 07:52 Sunny 9 -12.8 6 -14.4 88 88 SSE 9 15 30.22 1023 7 11 0.00 0.00
8:52 am 08:52 Mostly Sunny 11 -11.7 8 -13.3 88 88 S 8 13 30.24 1024 7 11 0.00 0.00
9:52 am 09:52 Mostly Sunny 13 -10.6 11 -11.7 92 92 S 12 19 30.26 1025 7 11 0.00 0.00
10:52 am 10:52 Mostly Sunny 18 -7.8 14 -10 84 84 SSE 15 24 30.26 1025 7 11 0.00 0.00
11:52 am 11:52 Mostly Sunny 22 -5.6 16 -8.9 78 78 SSE 13 20 30.22 1024 10 16 0.00 0.00
12:52 pm 12:52 Mostly Sunny 25 -3.9 18 -7.8 75 75 S 10 17 30.21 1023 10 16 0.00 0.00
1:52 pm 13:52 Partly Cloudy 27 -2.8 18 -7.8 69 69 SSE 14 22 30.21 1023 10 16 0.00 0.00
2:52 pm 14:52 Partly Cloudy 29 -1.7 19 -7.2 66 66 SSE 16 26 30.22 1024 10 16 0.00 0.00
3:52 pm 15:52 Partly Cloudy 27 -2.8 19 -7.2 72 72 SSE 7 11 30.21 1023 10 16 0.00 0.00
4:52 pm 16:52 Mostly Cloudy 26 -3.3 18 -7.8 71 71 ESE 6 9 30.20 1023 10 16 0.00 0.00
5:52 pm 17:52 Partly Cloudy 21 -6.1 15 -9.4 78 78 SSE 12 19 30.20 1023 10 16 0.00 0.00
6:52 pm 18:52 Mostly Clear 21 -6.1 16 -8.9 81 81 SSE 10 17 30.21 1023 10 16 0.00 0.00
7:52 pm 19:52 Mostly Clear 21 -6.1 17 -8.3 85 85 SSE 12 19 30.25 1024 10 16 0.00 0.00
8:52 pm 20:52 Clear 21 -6.1 17 -8.3 85 85 SSE 8 13 30.23 1024 10 16 0.00 0.00
9:52 pm 21:52 Clear 22 -5.6 18 -7.8 85 85 S 6 9 30.23 1024 10 16 0.00 0.00
10:52 pm 22:52 Clear 18 -7.8 16 -8.9 92 92 SSE 7 11 30.24 1024 10 16 0.00 0.00
11:52 pm 23:52 Clear 19 -7.2 17 -8.3 92 92 E 5 7 30.20 1023 10 16 0.00 0.00

Powered by AerisWeather